Regional Weather Roundup
Issued by NWS

Home | Current Version | Previous Version | Graphics & Text | Print | Product List | Glossary Off
Versions: 1 2 3 4 5 6 7 8 9 10 11 12 13 14 15 16 17 18 19 20 21 22 23 24 25 26 27 28 29 30 31 32 33 34 35 36 37 38 39 40 41 42 43 44 45 46 47 48 49 50

000
ASUS43 KTOP 252159
RWRKS

WEATHER ROUNDUP FOR KANSAS
NATIONAL WEATHER SERVICE GOODLAND KS
500 PM CDT SUN SEP 25 2016

NOTE:  "FAIR" INDICATES FEW OR NO CLOUDS BELOW 12,000 FEET WITH NO
SIGNIFICANT WEATHER AND/OR OBSTRUCTIONS TO VISIBILITY.

KSZ001>006-013>018-027>032-041>047-252300-
NORTHWEST KANSAS

CITY           SKY/WX    TMP DP  RH WIND       PRES   REMARKS
GOODLAND       MOSUNNY   70  33  25 N22G29    30.31S
HAYS           SUNNY     75  39  27 N18       30.21F
HILL CITY      SUNNY     74  35  24 N20G28    30.24S
RUSSELL        LGT RAIN  75  42  30 N17       30.19F
$$

KSZ061>065-074>080-084>089-252300-
SOUTHWEST KANSAS

CITY           SKY/WX    TMP DP  RH WIND       PRES   REMARKS
DODGE CITY     LGT RAIN  76  35  22 N18G24    30.24S
ELKHART          N/A     73  35  25 N10         N/A
GARDEN CITY    SUNNY     75  31  19 NE13G22   30.26S
GREAT BEND     SUNNY     73  45  35 N12G20    30.21S
LIBERAL        SUNNY     75  36  23 NE17G24   30.27F
$$

KSZ066>073-081>083-090>101-252300-
SOUTHEAST KANSAS

CITY           SKY/WX    TMP DP  RH WIND       PRES   REMARKS
CHANUTE        CLOUDY    63  57  81 N9        30.14R
COFFEYVILLE    LGT RAIN  62  60  93 N9        30.14R
HUTCHINSON     CLOUDY    74  49  41 N13       30.19S
MEDICINE LODGE   N/A     70  49  47 N9          N/A
NEWTON         CLOUDY   N/A N/A N/A N9        30.18F
PARSONS        CLOUDY    62  58  86 VRB6      30.15R
WICHITA INTL   CLOUDY    68  52  56 N9        30.18S
WICHITA JABRA  CLOUDY    66  54  65 N6        30.18S
WINFIELD       CLOUDY    66  53  63 N13       30.18S
$$

KSZ007>012-019>026-033>040-048>060-102>105-252300-
NORTHEAST KANSAS

CITY           SKY/WX    TMP DP  RH WIND       PRES   REMARKS
CONCORDIA      MOSUNNY   74  43  32 NW12G21   30.17S
EMPORIA        CLOUDY    67  52  58 N8        30.15S
LAWRENCE       CLOUDY    66  57  72 NW7       30.13S
MANHATTAN      PTSUNNY   73  49  42 N10       30.15R
OLATHE IND     CLOUDY    64  57  78 NW7       30.14R
OLATHE EXE     CLOUDY    63  55  75 NW8       30.13R
SALINA         MOSUNNY   73  48  41 NW10      30.18S
TOPEKA BILLARD CLOUDY    68  56  65 NW5       30.14R
TOPEKA FORBES  CLOUDY    68  56  65 N6        30.14R
$$




USA.gov is the U.S. government's official web portal to all federal, state and local government web resources and services.